sat.trackr.live / text

‹ back to catalog

KENT RIDGE 1

NORAD 41167 · 2015-077B

PAYLOAD ACTIVE UNKNOWN

§ Identity

Operator
Country
SING
Launch date
2015-12-16
Launch site
SRILR
Launch vehicle
Mass (kg)
RCS (m²)
0.20

Purposes: earth_obs

External: N2YO · Heavens-Above · Gunter

§ Orbital elements

Epoch: 2026-09-20T05:35:41.670816Z

Period
94.51 min
Inclination
14.9798°
Eccentricity
0.0008181
Mean motion
15.23617468 rev/d
Perigee alt
489.3 km
Apogee alt
500.6 km
Semi-major
6,873.1 km
B*
8.7874e-5
RAAN
278.8676°
Arg perigee
141.4519°
Mean anomaly
218.6388°
Rev number
59,561

§ Raw data

KENT RIDGE 11 41167U 15077B   26263.23312119  .00002934  00000+0  87874-4 0  99952 41167  14.9798 278.8676 0008181 141.4519 218.6388 15.23617468595611

JSON: /api/v1/satellites/41167 · /tle

For live sub-satellite position, see the globe view (requires WebGL).

§ Visibility from observer

Set your observer location to see the next 7 days of passes ≥ 10°. The values pass through the URL so the page stays shareable.

No JS? Fill the form by hand. The geolocation button needs JavaScript.